This is the latest recevied weather packets stored in our database for station/object KM5R. If no packets are shown the sender has not sent any weather packets the latest 10 day(s).
| Time | Temp. | Humidity | Pressure | Rain* | Wind** | Luminosity | Snow |
|---|---|---|---|---|---|---|---|
| 1777731397 | 15° C | 67% | 1024.4 hPa | 0 mm | - | 278 W/m² | - |
| 1777731095 | 15° C | 68% | 1024.4 hPa | 0 mm | - | 265 W/m² | - |
| 1777730793 | 15° C | 70% | 1024.3 hPa | 0 mm | - | 256 W/m² | - |
| 1777730489 | 14.44° C | 71% | 1024.2 hPa | 0 mm | - | 238 W/m² | - |
| 1777730185 | 14.44° C | 71% | 1024.4 hPa | 0 mm | - | 224 W/m² | - |
| 1777729882 | 14.44° C | 72% | 1024.5 hPa | 0 mm | - | 212 W/m² | - |
| 1777729579 | 14.44° C | 72% | 1024.5 hPa | 0 mm | - | 199 W/m² | - |
| 1777729275 | 13.89° C | 72% | 1024.2 hPa | 0 mm | - | 187 W/m² | - |
| 1777728973 | 13.89° C | 73% | 1024.3 hPa | 0 mm | - | 173 W/m² | - |
| 1777728669 | 13.89° C | 74% | 1024.2 hPa | 0 mm | - | 161 W/m² | - |
| 1777728366 | 13.33° C | 74% | 1024.2 hPa | 0 mm | - | 149 W/m² | - |
| 1777728063 | 13.33° C | 75% | 1024.1 hPa | 0 mm | - | 138 W/m² | - |
| 1777727760 | 13.33° C | 75% | 1023.9 hPa | 0 mm | - | 127 W/m² | - |
| 1777727457 | 12.78° C | 76% | 1023.9 hPa | 0 mm | - | 115 W/m² | - |
| 1777727154 | 12.78° C | 77% | 1024 hPa | 0 mm | - | 105 W/m² | - |
| 1777726852 | 12.22° C | 77% | 1023.9 hPa | 0 mm | - | 94 W/m² | - |
| 1777726548 | 12.22° C | 78% | 1023.9 hPa | 0 mm | - | 83 W/m² | - |
| 1777726246 | 11.67° C | 78% | 1023.5 hPa | 0 mm | - | 73 W/m² | - |
| 1777725942 | 11.67° C | 78% | 1023.7 hPa | 0 mm | - | 64 W/m² | - |
| 1777725639 | 11.67° C | 79% | 1023.4 hPa | 0 mm | - | 55 W/m² | - |
| 1777725338 | 11.11° C | 79% | 1023.3 hPa | 0 mm | - | 47 W/m² | - |
| 1777725034 | 11.11° C | 80% | 1023.1 hPa | 0 mm | - | 40 W/m² | - |
| 1777724730 | 10.56° C | 80% | 1023 hPa | 0 mm | - | 33 W/m² | - |
| 1777724428 | 10.56° C | 81% | 1023 hPa | 0 mm | - | 24 W/m² | - |
| 1777724125 | 10.56° C | 81% | 1022.9 hPa | 0 mm | - | 20 W/m² | - |
* Rain latest hour (hover to see other rain measurements)
** Current wind speed in m/s (hover to see current wind gust speed)